BEIDOU-3 G1

Last updated on Tue Sep 16 2025 00:02:49 GMT+0000 (Coordinated Universal Time)

1 43683U 18085A 25258.57321230 -.00000294 00000+0 00000+0 0 9995 2 43683 2.8840 105.2715 0003592 10.1606 225.7672 1.00273004 25300
UTC large
Height (km)
Speed (km/s)
/
Latitude / Longitude
Inclination (degrees)
Orbital Period (minutes)
Azimuth
Elevation
Range (km)
Doppler Factor

Next 0 passes for location: London (51.5072 / 0.1276)

Sorry there are no passes over London.